Weather in Gigant

Russia / Rostov Oblast     46°30′22″N   41°20′18″E
temp.,
°C
wind,
m/s
gust,
m/s
humid.,
%
clouds,
%
prec.,
mm/h
press.,
hPa
HPBL,
m
23 october, sat
sat2300:00+11sw47691 0.0 1019103
03:00+10sw410822 0.0 1019186
06:00+9sw4109270 0.0 1019203
09:00+14sw6107696 0.0 1019423
12:00+18wsw685499 0.0 1019900
15:00+19wsw6847100 0.0 10171213
18:00+16wsw3362100 0.0 101847
21:00+13w3675100 0.0 1018112
24 october, sun
sun2400:00+12w3792100 0.0 1019171
03:00+11nw3587100 0.0 1019163
06:00+11nnw2587100 0.5 1019227
09:00+11n1282100 0.8 1020163
12:00+12ne127598 0.3 1020369
15:00+12se1273100 0.7 1018310
18:00+10n4779100 2.8 1019570
21:00+7n71087100 7.1 1020806
25 october, mon
mon2500:00+5n61188100 7.6 1021751
03:00+6nw258299 9.3 1023413
06:00+5wnw498674 0.0 1024332
09:00+7nnw57665 0.0 1026509
12:00+9nnw565524 0.0 10271320
15:00+9nnw5551100 0.0 10281527
18:00+7nnw355146 0.0 1030125
21:00+4n35595 0.0 103190
26 october, tue
tue2600:00+3nne34575 0.0 103266
03:00+1nne33605 0.0 103346
06:00+1ne33643 0.0 103347
09:00+4ene34550 0.0 1034281
12:00+7ene33400 0.0 1033898
15:00+9ene33340 0.0 10311045
18:00+5e33470 0.0 103236
21:00+4e34540 0.0 103265
27 october, wed
wed2700:00+3e35570 0.0 103193
03:00+2e37620 0.0 1031116
06:00+1e49640 0.0 1030166
09:00+5ese610490 0.0 1030390
12:00+10ese68350 0.0 1027756
15:00+12ese67280 0.0 1025933
18:00+7e48410 0.0 1025119
21:00+5ese410480 0.0 1023193